Time,TemperatureF,DewpointF,PressureIn,WindDirection,WindDirectionDegrees,WindSpeedMPH,WindSpeedGustMPH,Humidity,HourlyPrecipIn,Conditions,Clouds,dailyrainin,SoftwareType,DateUTC
2013-01-21 00:00:00,37.0,27.1,29.87,WSW,248,0.0,0.0,67,0.00,CLR,CLR,0.00,WeatherDisplay:10.37,2013-01-21 05:00:00,
2013-01-21 00:03:00,37.0,27.1,29.87,WSW,248,0.0,0.0,67,0.00,CLR,CLR,0.00,WeatherDisplay:10.37,2013-01-21 05:03:00,
2013-01-21 00:06:00,37.0,27.1,29.87,WSW,248,0.0,0.0,67,0.00,CLR,CLR,0.00,WeatherDisplay:10.37,2013-01-21 05:06:00,
2013-01-21 00:12:00,36.3,26.4,29.87,WSW,248,0.0,0.0,67,0.00,CLR,CLR,0.00,WeatherDisplay:10.37,2013-01-21 05:12:00,
2013-01-21 00:17:00,36.1,26.2,29.87,WSW,248,0.0,0.0,67,0.00,CLR,CLR,0.00,WeatherDisplay:10.37,2013-01-21 05:17:00,
2013-01-21 00:22:00,36.1,26.2,29.87,WSW,248,0.0,0.0,67,0.00,CLR,CLR,0.00,WeatherDisplay:10.37,2013-01-21 05:22:00,
2013-01-21 00:27:00,36.1,26.6,29.87,WSW,248,0.0,0.0,68,0.00,CLR,CLR,0.00,WeatherDisplay:10.37,2013-01-21 05:27:00,
2013-01-21 00:32:00,36.1,26.6,29.87,WSW,248,0.0,0.0,68,0.00,CLR,CLR,0.00,WeatherDisplay:10.37,2013-01-21 05:32:00,
2013-01-21 00:38:00,36.1,26.6,29.87,WSW,248,0.0,0.0,68,0.00,CLR,CLR,0.00,WeatherDisplay:10.37,2013-01-21 05:38:00,
2013-01-21 00:43:00,36.0,26.4,29.87,WSW,248,0.0,0.0,68,0.00,CLR,CLR,0.00,WeatherDisplay:10.37,2013-01-21 05:43:00,
2013-01-21 00:48:00,35.8,26.6,29.86,WSW,248,0.0,0.0,69,0.00,CLR,CLR,0.00,WeatherDisplay:10.37,2013-01-21 05:48:00,
2013-01-21 00:53:00,35.8,26.6,29.87,WSW,248,0.0,0.0,69,0.00,CLR,CLR,0.00,WeatherDisplay:10.37,2013-01-21 05:53:00,
2013-01-21 00:58:00,36.1,26.9,29.86,WSW,248,0.0,0.0,69,0.00,CLR,CLR,0.00,WeatherDisplay:10.37,2013-01-21 05:58:00,
2013-01-21 01:03:00,36.0,26.8,29.86,WSW,248,0.0,0.0,69,0.00,CLR,CLR,0.00,WeatherDisplay:10.37,2013-01-21 06:03:00,
2013-01-21 01:08:00,35.4,26.3,29.86,WSW,248,0.0,0.0,69,0.00,CLR,CLR,0.00,WeatherDisplay:10.37,2013-01-21 06:08:00,
2013-01-21 01:13:00,34.9,26.1,29.86,SSE,158,0.0,0.0,70,0.00,CLR,CLR,0.00,WeatherDisplay:10.37,2013-01-21 06:13:00,
2013-01-21 01:18:00,34.5,26.1,29.86,SSE,158,0.0,0.0,71,0.00,CLR,CLR,0.00,WeatherDisplay:10.37,2013-01-21 06:18:00,
2013-01-21 01:24:00,34.2,25.7,29.87,SSE,158,0.0,0.0,71,0.00,CLR,CLR,0.00,WeatherDisplay:10.37,2013-01-21 06:24:00,
2013-01-21 01:29:00,33.8,25.7,29.87,SSE,158,0.0,0.0,72,0.00,CLR,CLR,0.00,WeatherDisplay:10.37,2013-01-21 06:29:00,
2013-01-21 01:34:00,33.6,25.6,29.87,SSE,158,0.0,0.0,72,0.00,CLR,CLR,0.00,WeatherDisplay:10.37,2013-01-21 06:34:00,
2013-01-21 01:39:00,33.6,25.6,29.87,SSE,158,0.0,0.0,72,0.00,CLR,CLR,0.00,WeatherDisplay:10.37,2013-01-21 06:39:00,
2013-01-21 01:44:00,33.4,25.4,29.87,SSE,158,0.0,0.0,72,0.00,CLR,CLR,0.00,WeatherDisplay:10.37,2013-01-21 06:44:00,
2013-01-21 01:49:00,33.4,25.7,29.87,SSE,158,0.0,0.0,73,0.00,CLR,CLR,0.00,WeatherDisplay:10.37,2013-01-21 06:49:00,
2013-01-21 01:54:00,33.6,26.2,29.87,SSE,158,0.0,0.0,74,0.00,CLR,CLR,0.00,WeatherDisplay:10.37,2013-01-21 06:54:00,
2013-01-21 02:00:00,34.0,26.2,29.87,SSE,158,0.0,0.0,73,0.00,CLR,CLR,0.00,WeatherDisplay:10.37,2013-01-21 07:00:00,
2013-01-21 02:05:00,34.0,26.6,29.87,SSE,158,0.0,0.0,74,0.00,CLR,CLR,0.00,WeatherDisplay:10.37,2013-01-21 07:05:00,
2013-01-21 02:10:00,34.3,27.2,29.87,SSE,158,0.0,0.0,75,0.00,CLR,CLR,0.00,WeatherDisplay:10.37,2013-01-21 07:10:00,
2013-01-21 02:15:00,34.3,27.2,29.87,South,180,0.0,0.0,75,0.00,CLR,CLR,0.00,WeatherDisplay:10.37,2013-01-21 07:15:00,
2013-01-21 02:20:00,34.0,26.2,29.87,South,180,0.0,0.0,73,0.00,CLR,CLR,0.00,WeatherDisplay:10.37,2013-01-21 07:20:00,
2013-01-21 02:25:00,33.4,26.0,29.87,South,180,0.0,0.0,74,0.00,CLR,CLR,0.00,WeatherDisplay:10.37,2013-01-21 07:25:00,
2013-01-21 02:30:00,32.9,25.5,29.86,South,180,0.0,0.0,74,0.00,CLR,CLR,0.00,WeatherDisplay:10.37,2013-01-21 07:30:00,
2013-01-21 02:35:00,32.7,25.7,29.87,South,180,0.0,0.0,75,0.00,CLR,CLR,0.00,WeatherDisplay:10.37,2013-01-21 07:35:00,
2013-01-21 02:40:00,32.7,25.7,29.86,South,180,0.0,0.0,75,0.00,CLR,CLR,0.00,WeatherDisplay:10.37,2013-01-21 07:40:00,
2013-01-21 02:45:00,32.7,26.0,29.87,WSW,248,0.0,0.0,76,0.00,CLR,CLR,0.00,WeatherDisplay:10.37,2013-01-21 07:45:00,
2013-01-21 02:50:00,32.7,25.7,29.86,WSW,248,0.0,0.0,75,0.00,CLR,CLR,0.00,WeatherDisplay:10.37,2013-01-21 07:50:00,
2013-01-21 02:55:00,32.5,25.5,29.87,WSW,248,0.0,0.0,75,0.00,CLR,CLR,0.00,WeatherDisplay:10.37,2013-01-21 07:55:00,
2013-01-21 03:00:00,32.5,25.8,29.87,WSW,248,0.0,0.0,76,0.00,CLR,CLR,0.00,WeatherDisplay:10.37,2013-01-21 08:00:00,
2013-01-21 03:06:00,32.2,25.5,29.87,WSW,248,0.0,0.0,76,0.00,CLR,CLR,0.00,WeatherDisplay:10.37,2013-01-21 08:06:00,
2013-01-21 03:11:00,31.8,25.1,29.86,WSW,248,0.0,0.0,76,0.00,CLR,CLR,0.00,WeatherDisplay:10.37,2013-01-21 08:11:00,
2013-01-21 03:16:00,31.5,25.1,29.86,WSW,248,0.0,0.0,77,0.00,CLR,CLR,0.00,WeatherDisplay:10.37,2013-01-21 08:16:00,
2013-01-21 03:22:00,31.1,24.7,29.86,WSW,248,0.0,0.0,77,0.00,CLR,CLR,0.00,WeatherDisplay:10.37,2013-01-21 08:22:00,
2013-01-21 03:27:00,31.1,25.0,29.85,WSW,248,0.0,0.0,78,0.00,CLR,CLR,0.00,WeatherDisplay:10.37,2013-01-21 08:27:00,
2013-01-21 03:32:00,31.5,25.4,29.85,WSW,248,0.0,0.0,78,0.00,CLR,CLR,0.00,WeatherDisplay:10.37,2013-01-21 08:32:00,
2013-01-21 03:37:00,31.6,25.9,29.85,WSW,248,0.0,0.0,79,0.00,CLR,CLR,0.00,WeatherDisplay:10.37,2013-01-21 08:37:00,
2013-01-21 03:42:00,31.8,26.0,29.85,WSW,248,0.0,0.0,79,0.00,CLR,CLR,0.00,WeatherDisplay:10.37,2013-01-21 08:42:00,
2013-01-21 03:47:00,32.2,26.1,29.85,WSW,248,0.0,0.0,78,0.00,CLR,CLR,0.00,WeatherDisplay:10.37,2013-01-21 08:47:00,
2013-01-21 03:52:00,31.8,26.0,29.85,WSW,248,0.0,0.0,79,0.00,CLR,CLR,0.00,WeatherDisplay:10.37,2013-01-21 08:52:00,
2013-01-21 03:58:00,30.6,24.5,29.85,SW,225,0.0,0.0,78,0.00,CLR,CLR,0.00,WeatherDisplay:10.37,2013-01-21 08:58:00,
2013-01-21 04:03:00,30.0,24.3,29.85,SW,225,0.0,0.0,79,0.00,CLR,CLR,0.00,WeatherDisplay:10.37,2013-01-21 09:03:00,
2013-01-21 04:08:00,29.5,23.8,29.85,SW,225,0.0,0.0,79,0.00,CLR,CLR,0.00,WeatherDisplay:10.37,2013-01-21 09:08:00,
2013-01-21 04:13:00,29.3,23.9,29.85,SW,225,0.0,0.0,80,0.00,CLR,CLR,0.00,WeatherDisplay:10.37,2013-01-21 09:13:00,
2013-01-21 04:18:00,29.1,23.7,29.85,SW,225,0.0,0.0,80,0.00,CLR,CLR,0.00,WeatherDisplay:10.37,2013-01-21 09:18:00,
2013-01-21 04:23:00,29.1,24.0,29.85,West,270,0.0,0.0,81,0.00,CLR,CLR,0.00,WeatherDisplay:10.37,2013-01-21 09:23:00,
2013-01-21 04:28:00,29.5,24.7,29.85,WSW,248,0.0,0.0,82,0.00,CLR,CLR,0.00,WeatherDisplay:10.37,2013-01-21 09:28:00,
2013-01-21 04:33:00,29.7,24.8,29.85,NW,315,0.0,0.0,82,0.00,CLR,CLR,0.00,WeatherDisplay:10.37,2013-01-21 09:33:00,
2013-01-21 04:38:00,29.5,24.7,29.85,NW,315,0.0,0.0,82,0.00,CLR,CLR,0.00,WeatherDisplay:10.37,2013-01-21 09:38:00,
2013-01-21 04:43:00,29.3,24.5,29.85,NW,315,0.0,0.0,82,0.00,CLR,CLR,0.00,WeatherDisplay:10.37,2013-01-21 09:43:00,
2013-01-21 04:48:00,29.3,24.5,29.85,NW,315,0.0,0.0,82,0.00,CLR,CLR,0.00,WeatherDisplay:10.37,2013-01-21 09:48:00,
2013-01-21 04:53:00,29.7,25.1,29.85,NW,315,0.0,0.0,83,0.00,CLR,CLR,0.00,WeatherDisplay:10.37,2013-01-21 09:53:00,
2013-01-21 04:58:00,29.8,25.0,29.85,NW,315,0.0,0.0,82,0.00,CLR,CLR,0.00,WeatherDisplay:10.37,2013-01-21 09:58:00,
2013-01-21 05:04:00,29.8,25.0,29.84,NW,315,0.0,0.0,82,0.00,CLR,CLR,0.00,WeatherDisplay:10.37,2013-01-21 10:04:00,
2013-01-21 05:09:00,29.5,25.0,29.85,NW,315,0.0,0.0,83,0.00,CLR,CLR,0.00,WeatherDisplay:10.37,2013-01-21 10:09:00,
2013-01-21 05:14:00,29.1,24.6,29.85,NW,315,0.0,0.0,83,0.00,CLR,CLR,0.00,WeatherDisplay:10.37,2013-01-21 10:14:00,
2013-01-21 05:19:00,28.9,24.4,29.85,NW,315,0.0,0.0,83,0.00,CLR,CLR,0.00,WeatherDisplay:10.37,2013-01-21 10:19:00,
2013-01-21 05:24:00,28.6,23.8,29.85,NW,315,0.0,0.0,82,0.00,CLR,CLR,0.00,WeatherDisplay:10.37,2013-01-21 10:24:00,
2013-01-21 05:30:00,28.0,23.3,29.85,NW,315,0.0,0.0,82,0.00,CLR,CLR,0.00,WeatherDisplay:10.37,2013-01-21 10:30:00,
2013-01-21 05:35:00,28.0,23.5,29.85,NW,315,0.0,0.0,83,0.00,CLR,CLR,0.00,WeatherDisplay:10.37,2013-01-21 10:35:00,
2013-01-21 05:40:00,28.0,23.5,29.85,NW,315,0.0,0.0,83,0.00,CLR,CLR,0.00,WeatherDisplay:10.37,2013-01-21 10:40:00,
2013-01-21 05:45:00,28.0,23.5,29.85,NW,315,0.0,0.0,83,0.00,CLR,CLR,0.00,WeatherDisplay:10.37,2013-01-21 10:45:00,
2013-01-21 05:50:00,28.0,23.8,29.85,NW,315,0.0,0.0,84,0.00,CLR,CLR,0.00,WeatherDisplay:10.37,2013-01-21 10:50:00,
2013-01-21 05:55:00,28.2,24.0,29.85,NW,315,0.0,0.0,84,0.00,CLR,CLR,0.00,WeatherDisplay:10.37,2013-01-21 10:55:00,
2013-01-21 06:00:00,28.8,24.5,29.85,NW,315,0.0,0.0,84,0.00,CLR,CLR,0.00,WeatherDisplay:10.37,2013-01-21 11:00:00,
2013-01-21 06:05:00,28.8,24.5,29.84,NW,315,0.0,0.0,84,0.00,CLR,CLR,0.00,WeatherDisplay:10.37,2013-01-21 11:05:00,
2013-01-21 06:10:00,28.8,24.8,29.84,NW,315,0.0,0.0,85,0.00,CLR,CLR,0.00,WeatherDisplay:10.37,2013-01-21 11:10:00,
2013-01-21 06:15:00,28.9,24.7,29.84,NW,315,0.0,0.0,84,0.00,CLR,CLR,0.00,WeatherDisplay:10.37,2013-01-21 11:15:00,
2013-01-21 06:20:00,28.6,24.4,29.84,NW,315,0.0,0.0,84,0.00,CLR,CLR,0.00,WeatherDisplay:10.37,2013-01-21 11:20:00,
2013-01-21 06:25:00,28.4,24.2,29.84,NW,315,0.0,0.0,84,0.00,CLR,CLR,0.00,WeatherDisplay:10.37,2013-01-21 11:25:00,
2013-01-21 06:30:00,28.0,23.5,29.84,NW,315,0.0,0.0,83,0.00,CLR,CLR,0.00,WeatherDisplay:10.37,2013-01-21 11:30:00,
2013-01-21 06:35:00,27.5,23.3,29.83,NW,315,0.0,0.0,84,0.00,CLR,CLR,0.00,WeatherDisplay:10.37,2013-01-21 11:35:00,
2013-01-21 06:40:00,27.3,23.1,29.83,NW,315,0.0,0.0,84,0.00,CLR,CLR,0.00,WeatherDisplay:10.37,2013-01-21 11:40:00,
2013-01-21 06:45:00,27.3,23.1,29.84,NW,315,0.0,0.0,84,0.00,CLR,CLR,0.00,WeatherDisplay:10.37,2013-01-21 11:45:00,
2013-01-21 06:50:00,27.1,22.9,29.84,NW,315,0.0,0.0,84,0.00,CLR,CLR,0.00,WeatherDisplay:10.37,2013-01-21 11:50:00,
2013-01-21 06:55:00,27.0,22.8,29.84,NW,315,0.0,0.0,84,0.00,CLR,CLR,0.00,WeatherDisplay:10.37,2013-01-21 11:55:00,
2013-01-21 07:00:00,26.8,22.6,29.84,NW,315,0.0,0.0,84,0.00,CLR,CLR,0.00,WeatherDisplay:10.37,2013-01-21 12:00:00,
2013-01-21 07:06:00,27.0,23.1,29.84,NW,315,0.0,0.0,85,0.00,CLR,CLR,0.00,WeatherDisplay:10.37,2013-01-21 12:06:00,
2013-01-21 07:11:00,27.1,23.2,29.84,NW,315,0.0,0.0,85,0.00,CLR,CLR,0.00,WeatherDisplay:10.37,2013-01-21 12:11:00,
2013-01-21 07:16:00,27.0,23.1,29.84,NW,315,0.0,0.0,85,0.00,CLR,CLR,0.00,WeatherDisplay:10.37,2013-01-21 12:16:00,
2013-01-21 07:21:00,27.0,23.3,29.84,NW,315,0.0,0.0,86,0.00,CLR,CLR,0.00,WeatherDisplay:10.37,2013-01-21 12:21:00,
2013-01-21 07:26:00,27.1,23.5,29.84,NW,315,0.0,0.0,86,0.00,CLR,CLR,0.00,WeatherDisplay:10.37,2013-01-21 12:26:00,
2013-01-21 07:31:00,27.1,23.5,29.84,NW,315,0.0,0.0,86,0.00,CLR,CLR,0.00,WeatherDisplay:10.37,2013-01-21 12:31:00,
2013-01-21 07:36:00,27.0,23.1,29.84,NW,315,0.0,0.0,85,0.00,CLR,CLR,0.00,WeatherDisplay:10.37,2013-01-21 12:36:00,
2013-01-21 07:41:00,26.4,22.5,29.84,NW,315,0.0,0.0,85,0.00,CLR,CLR,0.00,WeatherDisplay:10.37,2013-01-21 12:41:00,
2013-01-21 07:46:00,26.8,23.2,29.84,NW,315,0.0,0.0,86,0.00,CLR,CLR,0.00,WeatherDisplay:10.37,2013-01-21 12:46:00,
2013-01-21 07:51:00,26.8,23.2,29.84,NW,315,0.0,0.0,86,0.00,CLR,CLR,0.00,WeatherDisplay:10.37,2013-01-21 12:51:00,
2013-01-21 07:56:00,27.1,23.5,29.84,NW,315,0.0,0.0,86,0.00,CLR,CLR,0.00,WeatherDisplay:10.37,2013-01-21 12:56:00,
2013-01-21 08:01:00,27.5,23.9,29.84,NW,315,0.0,0.0,86,0.00,CLR,CLR,0.00,WeatherDisplay:10.37,2013-01-21 13:01:00,
2013-01-21 08:06:00,28.2,24.8,29.84,NW,315,0.0,0.0,87,0.00,CLR,CLR,0.00,WeatherDisplay:10.37,2013-01-21 13:06:00,
2013-01-21 08:11:00,28.8,25.1,29.84,NW,315,0.0,0.0,86,0.00,CLR,CLR,0.00,WeatherDisplay:10.37,2013-01-21 13:11:00,
2013-01-21 08:16:00,28.9,25.3,29.84,NW,315,0.0,0.0,86,0.00,CLR,CLR,0.00,WeatherDisplay:10.37,2013-01-21 13:16:00,
2013-01-21 08:22:00,29.1,25.5,29.84,SE,135,0.0,0.0,86,0.00,CLR,CLR,0.00,WeatherDisplay:10.37,2013-01-21 13:22:00,
2013-01-21 08:27:00,28.8,24.8,29.85,SE,135,0.0,0.0,85,0.00,CLR,CLR,0.00,WeatherDisplay:10.37,2013-01-21 13:27:00,
2013-01-21 08:32:00,28.4,24.5,29.84,SE,135,0.0,0.0,85,0.00,CLR,CLR,0.00,WeatherDisplay:10.37,2013-01-21 13:32:00,
2013-01-21 08:37:00,28.2,24.3,29.85,SE,135,0.0,0.0,85,0.00,CLR,CLR,0.00,WeatherDisplay:10.37,2013-01-21 13:37:00,
2013-01-21 08:42:00,28.4,24.5,29.86,SE,135,0.0,0.0,85,0.00,CLR,CLR,0.00,WeatherDisplay:10.37,2013-01-21 13:42:00,
2013-01-21 08:47:00,28.8,24.8,29.85,SE,135,0.0,0.0,85,0.00,CLR,CLR,0.00,WeatherDisplay:10.37,2013-01-21 13:47:00,
2013-01-21 08:52:00,28.9,25.0,29.85,SE,135,0.0,0.0,85,0.00,CLR,CLR,0.00,WeatherDisplay:10.37,2013-01-21 13:52:00,
2013-01-21 08:58:00,29.3,25.4,29.85,SE,135,0.0,0.0,85,0.00,CLR,CLR,0.00,WeatherDisplay:10.37,2013-01-21 13:58:00,
2013-01-21 09:03:00,29.5,25.5,29.85,SE,135,0.0,0.0,85,0.00,CLR,CLR,0.00,WeatherDisplay:10.37,2013-01-21 14:03:00,
2013-01-21 09:08:00,30.0,26.1,29.85,SE,135,0.0,0.0,85,0.00,CLR,CLR,0.00,WeatherDisplay:10.37,2013-01-21 14:08:00,
2013-01-21 09:13:00,30.6,26.6,29.85,SE,135,0.0,0.0,85,0.00,CLR,CLR,0.00,WeatherDisplay:10.37,2013-01-21 14:13:00,
2013-01-21 09:18:00,31.6,27.6,29.85,SE,135,0.0,0.0,85,0.00,CLR,CLR,0.00,WeatherDisplay:10.37,2013-01-21 14:18:00,
2013-01-21 09:23:00,31.8,27.5,29.85,SE,135,0.0,0.0,84,0.00,CLR,CLR,0.00,WeatherDisplay:10.37,2013-01-21 14:23:00,
2013-01-21 09:29:00,32.2,27.9,29.86,SE,135,0.0,0.0,84,0.00,CLR,CLR,0.00,WeatherDisplay:10.37,2013-01-21 14:29:00,
2013-01-21 09:34:00,32.5,28.2,29.85,SE,135,0.0,0.0,84,0.00,CLR,CLR,0.00,WeatherDisplay:10.37,2013-01-21 14:34:00,
2013-01-21 09:39:00,32.7,28.4,29.85,SSE,158,0.0,0.0,84,0.00,CLR,CLR,0.00,WeatherDisplay:10.37,2013-01-21 14:39:00,
2013-01-21 09:44:00,33.1,28.5,29.86,SSE,158,0.0,0.0,83,0.00,CLR,CLR,0.00,WeatherDisplay:10.37,2013-01-21 14:44:00,
2013-01-21 09:49:00,33.4,28.5,29.85,SSE,158,0.0,0.0,82,0.00,CLR,CLR,0.00,WeatherDisplay:10.37,2013-01-21 14:49:00,
2013-01-21 09:54:00,34.0,29.1,29.85,SSE,158,0.0,0.0,82,0.00,CLR,CLR,0.00,WeatherDisplay:10.37,2013-01-21 14:54:00,
2013-01-21 09:59:00,34.5,29.3,29.85,SSE,158,0.0,0.0,81,0.00,CLR,CLR,0.00,WeatherDisplay:10.37,2013-01-21 14:59:00,
2013-01-21 10:04:00,34.9,29.6,29.86,SSE,158,0.0,0.0,81,0.00,CLR,CLR,0.00,WeatherDisplay:10.37,2013-01-21 15:04:00,
2013-01-21 10:09:00,35.4,29.9,29.86,South,180,0.0,0.0,80,0.00,CLR,CLR,0.00,WeatherDisplay:10.37,2013-01-21 15:09:00,
2013-01-21 10:14:00,36.0,30.4,29.86,SSE,158,0.0,0.0,80,0.00,CLR,CLR,0.00,WeatherDisplay:10.37,2013-01-21 15:14:00,
2013-01-21 10:19:00,36.3,30.4,29.87,SSE,158,0.0,0.0,79,0.00,CLR,CLR,0.00,WeatherDisplay:10.37,2013-01-21 15:19:00,
2013-01-21 10:24:00,36.7,30.5,29.86,SSE,158,0.0,0.0,78,0.00,CLR,CLR,0.00,WeatherDisplay:10.37,2013-01-21 15:24:00,
2013-01-21 10:30:00,37.6,30.7,29.87,SSE,158,0.0,0.0,76,0.00,CLR,CLR,0.00,WeatherDisplay:10.37,2013-01-21 15:30:00,
2013-01-21 10:35:00,37.9,30.7,29.86,SSE,158,0.0,0.0,75,0.00,CLR,CLR,0.00,WeatherDisplay:10.37,2013-01-21 15:35:00,
2013-01-21 10:40:00,38.7,31.4,29.86,SE,135,0.0,0.0,75,0.00,CLR,CLR,0.00,WeatherDisplay:10.37,2013-01-21 15:40:00,
2013-01-21 10:45:00,39.6,32.0,29.86,SSW,202,0.0,0.0,74,0.00,CLR,CLR,0.00,WeatherDisplay:10.37,2013-01-21 15:45:00,
2013-01-21 10:50:00,40.1,31.8,29.86,SSE,158,0.0,0.0,72,0.00,CLR,CLR,0.00,WeatherDisplay:10.37,2013-01-21 15:50:00,
2013-01-21 10:55:00,40.6,32.0,29.85,South,180,0.0,0.0,71,0.00,CLR,CLR,0.00,WeatherDisplay:10.37,2013-01-21 15:55:00,
2013-01-21 11:00:00,40.8,32.1,29.85,SW,225,0.0,0.0,71,0.00,CLR,CLR,0.00,WeatherDisplay:10.37,2013-01-21 16:00:00,
2013-01-21 11:05:00,41.2,32.5,29.85,West,270,0.0,0.0,71,0.00,CLR,CLR,0.00,WeatherDisplay:10.37,2013-01-21 16:05:00,
2013-01-21 11:10:00,42.3,33.2,29.85,SW,225,0.0,0.0,70,0.00,CLR,CLR,0.00,WeatherDisplay:10.37,2013-01-21 16:10:00,
2013-01-21 11:16:00,43.0,33.1,29.84,South,180,0.0,0.0,68,0.00,CLR,CLR,0.00,WeatherDisplay:10.37,2013-01-21 16:16:00,
2013-01-21 11:21:00,43.3,32.7,29.84,SW,225,2.4,2.4,66,0.00,CLR,CLR,0.00,WeatherDisplay:10.37,2013-01-21 16:21:00,
2013-01-21 11:26:00,44.1,32.7,29.83,South,180,0.0,0.0,64,0.00,CLR,CLR,0.00,WeatherDisplay:10.37,2013-01-21 16:26:00,
2013-01-21 11:31:00,44.2,33.2,29.83,WSW,248,0.0,0.0,65,0.00,CLR,CLR,0.00,WeatherDisplay:10.37,2013-01-21 16:31:00,
2013-01-21 11:36:00,45.0,33.5,29.82,SW,225,2.0,2.3,64,0.00,CLR,CLR,0.00,WeatherDisplay:10.37,2013-01-21 16:36:00,
2013-01-21 11:41:00,45.9,33.6,29.82,WSW,248,3.1,3.5,62,0.00,CLR,CLR,0.00,WeatherDisplay:10.37,2013-01-21 16:41:00,
2013-01-21 11:46:00,46.6,33.4,29.82,WSW,248,4.0,4.0,60,0.00,CLR,CLR,0.00,WeatherDisplay:10.37,2013-01-21 16:46:00,
2013-01-21 11:51:00,47.5,33.0,29.82,WSW,248,4.9,4.9,57,0.00,CLR,CLR,0.00,WeatherDisplay:10.37,2013-01-21 16:51:00,
2013-01-21 11:56:00,48.0,33.1,29.81,West,270,0.0,0.0,56,0.00,CLR,CLR,0.00,WeatherDisplay:10.37,2013-01-21 16:56:00,
2013-01-21 12:01:00,48.7,32.4,29.80,SW,225,4.0,4.6,53,0.00,CLR,CLR,0.00,WeatherDisplay:10.37,2013-01-21 17:01:00,
2013-01-21 12:06:00,49.1,32.2,29.80,West,270,0.0,0.0,52,0.00,CLR,CLR,0.00,WeatherDisplay:10.37,2013-01-21 17:06:00,
2013-01-21 12:11:00,49.8,30.9,29.79,SW,225,1.1,1.2,48,0.00,CLR,CLR,0.00,WeatherDisplay:10.37,2013-01-21 17:11:00,
2013-01-21 12:16:00,50.5,31.0,29.79,WSW,248,5.3,5.8,47,0.00,CLR,CLR,0.00,WeatherDisplay:10.37,2013-01-21 17:16:00,
2013-01-21 12:22:00,50.5,30.0,29.79,WSW,248,0.8,1.2,45,0.00,CLR,CLR,0.00,WeatherDisplay:10.37,2013-01-21 17:22:00,
2013-01-21 12:27:00,50.7,30.7,29.78,SW,225,3.5,3.5,46,0.00,CLR,CLR,0.00,WeatherDisplay:10.37,2013-01-21 17:27:00,
2013-01-21 12:32:00,51.4,30.2,29.77,SSW,202,2.6,2.6,44,0.00,CLR,CLR,0.00,WeatherDisplay:10.37,2013-01-21 17:32:00,
2013-01-21 12:37:00,51.4,29.1,29.76,WSW,248,7.2,10.4,42,0.00,CLR,CLR,0.00,WeatherDisplay:10.37,2013-01-21 17:37:00,
2013-01-21 12:42:00,51.8,31.7,29.76,West,270,0.0,0.0,46,0.00,CLR,CLR,0.00,WeatherDisplay:10.37,2013-01-21 17:42:00,
2013-01-21 12:47:00,52.5,30.6,29.76,WNW,292,0.0,0.0,43,0.00,CLR,CLR,0.00,WeatherDisplay:10.37,2013-01-21 17:47:00,
2013-01-21 12:52:00,52.9,31.5,29.76,West,270,2.4,2.4,44,0.00,CLR,CLR,0.00,WeatherDisplay:10.37,2013-01-21 17:52:00,
2013-01-21 12:57:00,52.3,29.9,29.75,NNE,22,9.4,12.7,42,0.00,CLR,CLR,0.00,WeatherDisplay:10.37,2013-01-21 17:57:00,
2013-01-21 13:02:00,52.2,28.5,29.75,West,270,7.7,7.7,40,0.00,CLR,CLR,0.00,WeatherDisplay:10.37,2013-01-21 18:02:00,
2013-01-21 13:07:00,52.2,29.7,29.74,NE,45,6.8,6.8,42,0.00,CLR,CLR,0.00,WeatherDisplay:10.37,2013-01-21 18:07:00,
2013-01-21 13:13:00,52.2,27.9,29.74,North,0,6.5,6.9,39,0.00,CLR,CLR,0.00,WeatherDisplay:10.37,2013-01-21 18:13:00,
2013-01-21 13:18:00,52.0,29.0,29.74,North,0,6.3,6.3,41,0.00,CLR,CLR,0.00,WeatherDisplay:10.37,2013-01-21 18:18:00,
2013-01-21 13:23:00,52.0,29.0,29.74,WNW,292,6.8,6.9,41,0.00,CLR,CLR,0.00,WeatherDisplay:10.37,2013-01-21 18:23:00,
2013-01-21 13:28:00,52.0,29.0,29.74,WNW,292,10.2,10.4,41,0.00,CLR,CLR,0.00,WeatherDisplay:10.37,2013-01-21 18:28:00,
2013-01-21 13:33:00,51.6,28.1,29.73,NNW,338,9.2,9.2,40,0.00,CLR,CLR,0.00,WeatherDisplay:10.37,2013-01-21 18:33:00,
2013-01-21 13:38:00,52.0,29.0,29.73,NNW,338,2.0,2.3,41,0.00,CLR,CLR,0.00,WeatherDisplay:10.37,2013-01-21 18:38:00,
2013-01-21 13:43:00,52.2,29.1,29.73,WSW,248,3.3,3.5,41,0.00,CLR,CLR,0.00,WeatherDisplay:10.37,2013-01-21 18:43:00,
2013-01-21 13:48:00,52.2,28.5,29.73,NW,315,2.2,2.3,40,0.00,CLR,CLR,0.00,WeatherDisplay:10.37,2013-01-21 18:48:00,
2013-01-21 13:53:00,52.5,28.9,29.73,North,0,7.2,7.2,40,0.00,CLR,CLR,0.00,WeatherDisplay:10.37,2013-01-21 18:53:00,
2013-01-21 13:58:00,52.5,29.5,29.72,WSW,248,4.4,4.6,41,0.00,CLR,CLR,0.00,WeatherDisplay:10.37,2013-01-21 18:58:00,
2013-01-21 14:03:00,52.9,29.8,29.72,NNW,338,4.9,4.9,41,0.00,CLR,CLR,0.00,WeatherDisplay:10.37,2013-01-21 19:03:00,
2013-01-21 14:08:00,52.7,28.4,29.72,NW,315,8.6,8.6,39,0.00,CLR,CLR,0.00,WeatherDisplay:10.37,2013-01-21 19:08:00,
2013-01-21 14:13:00,52.5,28.2,29.72,NNW,338,7.7,8.1,39,0.00,CLR,CLR,0.00,WeatherDisplay:10.37,2013-01-21 19:13:00,
2013-01-21 14:19:00,52.5,28.9,29.72,SSW,202,3.5,3.5,40,0.00,CLR,CLR,0.00,WeatherDisplay:10.37,2013-01-21 19:19:00,
2013-01-21 14:24:00,53.2,29.5,29.71,NNE,22,3.8,3.8,40,0.00,CLR,CLR,0.00,WeatherDisplay:10.37,2013-01-21 19:24:00,
2013-01-21 14:29:00,53.2,28.3,29.71,NNE,22,7.9,8.1,38,0.00,CLR,CLR,0.00,WeatherDisplay:10.37,2013-01-21 19:29:00,
2013-01-21 14:34:00,52.9,27.9,29.72,NNW,338,14.5,15.0,38,0.00,CLR,CLR,0.00,WeatherDisplay:10.37,2013-01-21 19:34:00,
2013-01-21 14:39:00,52.7,27.8,29.72,NNE,22,7.2,7.2,38,0.00,CLR,CLR,0.00,WeatherDisplay:10.37,2013-01-21 19:39:00,
2013-01-21 14:44:00,52.7,29.0,29.72,NNW,338,2.4,2.4,40,0.00,CLR,CLR,0.00,WeatherDisplay:10.37,2013-01-21 19:44:00,
2013-01-21 14:49:00,52.9,28.6,29.72,West,270,4.6,4.6,39,0.00,CLR,CLR,0.00,WeatherDisplay:10.37,2013-01-21 19:49:00,
2013-01-21 14:54:00,52.7,28.4,29.72,NNE,22,9.0,9.0,39,0.00,CLR,CLR,0.00,WeatherDisplay:10.37,2013-01-21 19:54:00,
2013-01-21 14:59:00,52.7,28.4,29.72,NW,315,2.4,2.4,39,0.00,CLR,CLR,0.00,WeatherDisplay:10.37,2013-01-21 19:59:00,
2013-01-21 15:04:00,52.9,27.9,29.71,NW,315,9.7,9.7,38,0.00,CLR,CLR,0.00,WeatherDisplay:10.37,2013-01-21 20:04:00,
2013-01-21 15:09:00,52.9,28.6,29.71,NNW,338,9.7,9.7,39,0.00,CLR,CLR,0.00,WeatherDisplay:10.37,2013-01-21 20:09:00,
2013-01-21 15:15:00,52.7,28.4,29.71,WNW,292,6.3,6.3,39,0.00,CLR,CLR,0.00,WeatherDisplay:10.37,2013-01-21 20:15:00,
2013-01-21 15:20:00,52.5,28.2,29.71,NNW,338,3.1,3.5,39,0.00,CLR,CLR,0.00,WeatherDisplay:10.37,2013-01-21 20:20:00,
2013-01-21 15:25:00,52.5,27.6,29.71,NNW,338,5.5,5.8,38,0.00,CLR,CLR,0.00,WeatherDisplay:10.37,2013-01-21 20:25:00,
2013-01-21 15:30:00,52.7,28.4,29.71,NW,315,2.6,2.6,39,0.00,CLR,CLR,0.00,WeatherDisplay:10.37,2013-01-21 20:30:00,
2013-01-21 15:35:00,53.1,28.1,29.71,NNW,338,6.5,8.1,38,0.00,CLR,CLR,0.00,WeatherDisplay:10.37,2013-01-21 20:35:00,
2013-01-21 15:40:00,52.7,27.1,29.71,North,0,7.9,7.9,37,0.00,CLR,CLR,0.00,WeatherDisplay:10.37,2013-01-21 20:40:00,
2013-01-21 15:45:00,52.9,26.6,29.71,NNW,338,4.4,4.4,36,0.00,CLR,CLR,0.00,WeatherDisplay:10.37,2013-01-21 20:45:00,
2013-01-21 15:50:00,52.5,26.3,29.71,SW,225,3.3,3.5,36,0.00,CLR,CLR,0.00,WeatherDisplay:10.37,2013-01-21 20:50:00,
2013-01-21 15:55:00,52.2,25.3,29.72,North,0,3.8,9.2,35,0.00,CLR,CLR,0.00,WeatherDisplay:10.37,2013-01-21 20:55:00,
2013-01-21 16:01:00,52.0,25.1,29.72,North,0,9.4,9.4,35,0.00,CLR,CLR,0.00,WeatherDisplay:10.37,2013-01-21 21:01:00,
2013-01-21 16:06:00,51.4,25.3,29.73,NW,315,5.3,6.9,36,0.00,CLR,CLR,0.00,WeatherDisplay:10.37,2013-01-21 21:06:00,
2013-01-21 16:11:00,51.1,24.3,29.72,NW,315,10.0,10.0,35,0.00,CLR,CLR,0.00,WeatherDisplay:10.37,2013-01-21 21:11:00,
2013-01-21 16:16:00,52.0,26.5,29.73,West,270,5.2,5.2,37,0.00,CLR,CLR,0.00,WeatherDisplay:10.37,2013-01-21 21:16:00,
2013-01-21 16:22:00,51.3,25.2,29.73,WSW,248,9.2,9.2,36,0.00,CLR,CLR,0.00,WeatherDisplay:10.37,2013-01-21 21:22:00,
2013-01-21 16:27:00,50.9,25.5,29.74,West,270,7.0,7.0,37,0.00,CLR,CLR,0.00,WeatherDisplay:10.37,2013-01-21 21:27:00,
2013-01-21 16:32:00,51.3,24.5,29.73,West,270,6.3,6.3,35,0.00,CLR,CLR,0.00,WeatherDisplay:10.37,2013-01-21 21:32:00,
2013-01-21 16:37:00,50.2,23.5,29.74,North,0,4.4,4.6,35,0.00,CLR,CLR,0.00,WeatherDisplay:10.37,2013-01-21 21:37:00,
2013-01-21 16:42:00,49.6,22.4,29.74,NW,315,7.2,7.2,34,0.00,CLR,CLR,0.00,WeatherDisplay:10.37,2013-01-21 21:42:00,
2013-01-21 16:47:00,48.9,22.4,29.73,WNW,292,6.1,9.2,35,0.00,CLR,CLR,0.00,WeatherDisplay:10.37,2013-01-21 21:47:00,
2013-01-21 16:52:00,48.4,22.0,29.74,WNW,292,7.9,7.9,35,0.00,CLR,CLR,0.00,WeatherDisplay:10.37,2013-01-21 21:52:00,
2013-01-21 16:57:00,47.8,22.1,29.74,NW,315,7.0,7.0,36,0.00,CLR,CLR,0.00,WeatherDisplay:10.37,2013-01-21 21:57:00,
2013-01-21 17:02:00,47.5,21.8,29.74,West,270,7.9,9.2,36,0.00,CLR,CLR,0.00,WeatherDisplay:10.37,2013-01-21 22:02:00,
2013-01-21 17:07:00,46.9,20.7,29.74,West,270,8.3,10.4,35,0.00,CLR,CLR,0.00,WeatherDisplay:10.37,2013-01-21 22:07:00,
2013-01-21 17:12:00,46.8,20.5,29.74,North,0,7.2,7.2,35,0.00,CLR,CLR,0.00,WeatherDisplay:10.37,2013-01-21 22:12:00,
2013-01-21 17:18:00,46.2,20.7,29.74,WSW,248,5.3,5.8,36,0.00,CLR,CLR,0.00,WeatherDisplay:10.37,2013-01-21 22:18:00,
2013-01-21 17:23:00,45.7,21.5,29.75,WNW,292,0.0,0.0,38,0.00,CLR,CLR,0.00,WeatherDisplay:10.37,2013-01-21 22:23:00,
2013-01-21 17:28:00,45.1,20.4,29.74,NW,315,4.6,4.6,37,0.00,CLR,CLR,0.00,WeatherDisplay:10.37,2013-01-21 22:28:00,
2013-01-21 17:33:00,44.8,20.1,29.75,West,270,5.5,5.8,37,0.00,CLR,CLR,0.00,WeatherDisplay:10.37,2013-01-21 22:33:00,
2013-01-21 17:38:00,44.2,19.6,29.75,SW,225,5.5,5.5,37,0.00,CLR,CLR,0.00,WeatherDisplay:10.37,2013-01-21 22:38:00,
2013-01-21 17:43:00,43.9,19.3,29.75,WSW,248,6.5,6.5,37,0.00,CLR,CLR,0.00,WeatherDisplay:10.37,2013-01-21 22:43:00,
2013-01-21 17:48:00,43.5,18.9,29.75,WNW,292,5.2,10.4,37,0.00,CLR,CLR,0.00,WeatherDisplay:10.37,2013-01-21 22:48:00,
2013-01-21 17:54:00,43.5,18.9,29.75,WNW,292,1.1,1.2,37,0.00,CLR,CLR,0.00,WeatherDisplay:10.37,2013-01-21 22:54:00,
2013-01-21 17:59:00,43.2,19.2,29.75,West,270,0.8,1.2,38,0.00,CLR,CLR,0.00,WeatherDisplay:10.37,2013-01-21 22:59:00,
2013-01-21 18:04:00,42.8,19.5,29.75,West,270,4.0,4.0,39,0.00,CLR,CLR,0.00,WeatherDisplay:10.37,2013-01-21 23:04:00,
2013-01-21 18:09:00,42.4,18.6,29.75,WNW,292,0.0,0.0,38,0.00,CLR,CLR,0.00,WeatherDisplay:10.37,2013-01-21 23:09:00,
2013-01-21 18:14:00,42.3,19.0,29.75,WNW,292,2.9,3.5,39,0.00,CLR,CLR,0.00,WeatherDisplay:10.37,2013-01-21 23:14:00,
2013-01-21 18:19:00,41.9,18.7,29.75,West,270,3.5,3.5,39,0.00,CLR,CLR,0.00,WeatherDisplay:10.37,2013-01-21 23:19:00,
2013-01-21 18:24:00,41.7,18.5,29.76,WSW,248,0.0,0.0,39,0.00,CLR,CLR,0.00,WeatherDisplay:10.37,2013-01-21 23:24:00,
2013-01-21 18:29:00,41.5,19.0,29.76,North,0,0.0,0.0,40,0.00,CLR,CLR,0.00,WeatherDisplay:10.37,2013-01-21 23:29:00,
2013-01-21 18:35:00,41.2,18.1,29.75,WSW,248,3.1,3.5,39,0.00,CLR,CLR,0.00,WeatherDisplay:10.37,2013-01-21 23:35:00,
2013-01-21 18:40:00,41.2,18.1,29.76,SW,225,1.5,1.5,39,0.00,CLR,CLR,0.00,WeatherDisplay:10.37,2013-01-21 23:40:00,
2013-01-21 18:45:00,41.2,18.1,29.76,WNW,292,0.0,0.0,39,0.00,CLR,CLR,0.00,WeatherDisplay:10.37,2013-01-21 23:45:00,
2013-01-21 18:50:00,40.6,18.2,29.76,WSW,248,3.5,3.5,40,0.00,CLR,CLR,0.00,WeatherDisplay:10.37,2013-01-21 23:50:00,
2013-01-21 18:55:00,40.6,18.2,29.75,West,270,0.0,0.0,40,0.00,CLR,CLR,0.00,WeatherDisplay:10.37,2013-01-21 23:55:00,
2013-01-21 19:00:00,40.6,17.6,29.76,NE,45,5.5,5.5,39,0.00,CLR,CLR,0.00,WeatherDisplay:10.37,2013-01-22 00:00:00,
2013-01-21 19:06:00,40.6,17.6,29.76,WNW,292,0.0,0.0,39,0.00,CLR,CLR,0.00,WeatherDisplay:10.37,2013-01-22 00:06:00,
2013-01-21 19:11:00,40.3,17.3,29.76,WSW,248,0.0,0.0,39,0.00,CLR,CLR,0.00,WeatherDisplay:10.37,2013-01-22 00:11:00,
2013-01-21 19:16:00,40.1,17.1,29.76,NNW,338,0.0,0.0,39,0.00,CLR,CLR,0.00,WeatherDisplay:10.37,2013-01-22 00:16:00,
2013-01-21 19:21:00,39.9,17.5,29.76,West,270,1.7,1.7,40,0.00,CLR,CLR,0.00,WeatherDisplay:10.37,2013-01-22 00:21:00,
2013-01-21 19:26:00,39.7,16.8,29.76,West,270,0.0,0.0,39,0.00,CLR,CLR,0.00,WeatherDisplay:10.37,2013-01-22 00:26:00,
2013-01-21 19:31:00,39.7,17.4,29.76,WSW,248,0.0,0.0,40,0.00,CLR,CLR,0.00,WeatherDisplay:10.37,2013-01-22 00:31:00,
2013-01-21 19:36:00,39.4,17.0,29.76,SW,225,0.0,0.0,40,0.00,CLR,CLR,0.00,WeatherDisplay:10.37,2013-01-22 00:36:00,
2013-01-21 19:41:00,39.2,16.9,29.76,West,270,0.0,0.0,40,0.00,CLR,CLR,0.00,WeatherDisplay:10.37,2013-01-22 00:41:00,
2013-01-21 19:46:00,38.8,17.1,29.76,WSW,248,0.0,0.0,41,0.00,CLR,CLR,0.00,WeatherDisplay:10.37,2013-01-22 00:46:00,
2013-01-21 19:52:00,38.7,17.0,29.76,West,270,0.0,0.0,41,0.00,CLR,CLR,0.00,WeatherDisplay:10.37,2013-01-22 00:52:00,
2013-01-21 19:57:00,38.5,16.8,29.76,WSW,248,0.0,0.0,41,0.00,CLR,CLR,0.00,WeatherDisplay:10.37,2013-01-22 00:57:00,
2013-01-21 20:02:00,38.1,16.5,29.76,WSW,248,0.0,0.0,41,0.00,CLR,CLR,0.00,WeatherDisplay:10.37,2013-01-22 01:02:00,
2013-01-21 20:07:00,38.1,16.5,29.76,West,270,0.0,0.0,41,0.00,CLR,CLR,0.00,WeatherDisplay:10.37,2013-01-22 01:07:00,
2013-01-21 20:12:00,37.9,16.9,29.76,WSW,248,0.0,0.0,42,0.00,CLR,CLR,0.00,WeatherDisplay:10.37,2013-01-22 01:12:00,
2013-01-21 20:17:00,37.9,16.3,29.76,WSW,248,0.0,0.0,41,0.00,CLR,CLR,0.00,WeatherDisplay:10.37,2013-01-22 01:17:00,
2013-01-21 20:22:00,37.8,16.1,29.76,WSW,248,0.0,0.0,41,0.00,CLR,CLR,0.00,WeatherDisplay:10.37,2013-01-22 01:22:00,
2013-01-21 20:28:00,37.4,16.4,29.76,WSW,248,0.0,0.0,42,0.00,CLR,CLR,0.00,WeatherDisplay:10.37,2013-01-22 01:28:00,
2013-01-21 20:33:00,37.2,16.2,29.76,West,270,0.0,0.0,42,0.00,CLR,CLR,0.00,WeatherDisplay:10.37,2013-01-22 01:33:00,
2013-01-21 20:38:00,37.2,16.2,29.76,West,270,0.0,0.0,42,0.00,CLR,CLR,0.00,WeatherDisplay:10.37,2013-01-22 01:38:00,
2013-01-21 20:43:00,37.0,16.0,29.76,WSW,248,0.0,0.0,42,0.00,CLR,CLR,0.00,WeatherDisplay:10.37,2013-01-22 01:43:00,
2013-01-21 20:48:00,36.7,16.3,29.76,WNW,292,0.0,0.0,43,0.00,CLR,CLR,0.00,WeatherDisplay:10.37,2013-01-22 01:48:00,
2013-01-21 20:53:00,36.7,16.3,29.76,NNE,22,0.0,0.0,43,0.00,CLR,CLR,0.00,WeatherDisplay:10.37,2013-01-22 01:53:00,
2013-01-21 20:58:00,36.5,16.1,29.76,NW,315,0.0,0.0,43,0.00,CLR,CLR,0.00,WeatherDisplay:10.37,2013-01-22 01:58:00,
2013-01-21 21:03:00,36.3,16.5,29.76,NW,315,0.0,0.0,44,0.00,CLR,CLR,0.00,WeatherDisplay:10.37,2013-01-22 02:03:00,
2013-01-21 21:09:00,36.3,15.9,29.76,NW,315,0.0,0.0,43,0.00,CLR,CLR,0.00,WeatherDisplay:10.37,2013-01-22 02:09:00,
2013-01-21 21:14:00,36.1,16.3,29.77,NW,315,0.0,0.0,44,0.00,CLR,CLR,0.00,WeatherDisplay:10.37,2013-01-22 02:14:00,
2013-01-21 21:19:00,35.8,16.0,29.77,NW,315,0.0,0.0,44,0.00,CLR,CLR,0.00,WeatherDisplay:10.37,2013-01-22 02:19:00,
2013-01-21 21:24:00,35.8,16.5,29.77,West,270,0.0,0.0,45,0.00,CLR,CLR,0.00,WeatherDisplay:10.37,2013-01-22 02:24:00,
2013-01-21 21:29:00,35.8,16.5,29.77,West,270,0.0,0.0,45,0.00,CLR,CLR,0.00,WeatherDisplay:10.37,2013-01-22 02:29:00,
2013-01-21 21:34:00,36.0,16.1,29.77,NNE,22,0.0,0.0,44,0.00,CLR,CLR,0.00,WeatherDisplay:10.37,2013-01-22 02:34:00,
2013-01-21 21:39:00,35.8,16.0,29.77,NNE,22,0.0,0.0,44,0.00,CLR,CLR,0.00,WeatherDisplay:10.37,2013-01-22 02:39:00,
2013-01-21 21:44:00,35.2,16.0,29.77,NNE,22,0.0,0.0,45,0.00,CLR,CLR,0.00,WeatherDisplay:10.37,2013-01-22 02:44:00,
2013-01-21 21:50:00,34.7,15.5,29.76,NNE,22,0.0,0.0,45,0.00,CLR,CLR,0.00,WeatherDisplay:10.37,2013-01-22 02:50:00,
2013-01-21 21:55:00,34.5,15.8,29.76,NNE,22,0.0,0.0,46,0.00,CLR,CLR,0.00,WeatherDisplay:10.37,2013-01-22 02:55:00,
2013-01-21 22:00:00,34.3,15.7,29.76,NNE,22,0.0,0.0,46,0.00,CLR,CLR,0.00,WeatherDisplay:10.37,2013-01-22 03:00:00,
2013-01-21 22:05:00,34.3,15.7,29.77,NNE,22,0.0,0.0,46,0.00,CLR,CLR,0.00,WeatherDisplay:10.37,2013-01-22 03:05:00,
2013-01-21 22:10:00,34.5,15.8,29.78,West,270,0.0,0.0,46,0.00,CLR,CLR,0.00,WeatherDisplay:10.37,2013-01-22 03:10:00,
2013-01-21 22:15:00,34.5,15.3,29.77,WNW,292,0.0,0.0,45,0.00,CLR,CLR,0.00,WeatherDisplay:10.37,2013-01-22 03:15:00,
2013-01-21 22:21:00,34.7,15.5,29.77,NW,315,0.0,0.0,45,0.00,CLR,CLR,0.00,WeatherDisplay:10.37,2013-01-22 03:21:00,
2013-01-21 22:26:00,34.9,14.6,29.78,West,270,1.1,1.2,43,0.00,CLR,CLR,0.00,WeatherDisplay:10.37,2013-01-22 03:26:00,
2013-01-21 22:31:00,35.1,15.3,29.78,NW,315,0.0,0.0,44,0.00,CLR,CLR,0.00,WeatherDisplay:10.37,2013-01-22 03:31:00,
2013-01-21 22:36:00,34.9,14.6,29.78,WSW,248,0.0,0.0,43,0.00,CLR,CLR,0.00,WeatherDisplay:10.37,2013-01-22 03:36:00,
2013-01-21 22:41:00,34.7,14.5,29.78,WSW,248,0.0,0.0,43,0.00,CLR,CLR,0.00,WeatherDisplay:10.37,2013-01-22 03:41:00,
2013-01-21 22:46:00,34.7,14.5,29.78,West,270,0.0,0.0,43,0.00,CLR,CLR,0.00,WeatherDisplay:10.37,2013-01-22 03:46:00,
2013-01-21 22:51:00,34.5,14.3,29.78,WSW,248,0.0,0.0,43,0.00,CLR,CLR,0.00,WeatherDisplay:10.37,2013-01-22 03:51:00,
2013-01-21 22:56:00,34.5,14.3,29.78,WSW,248,0.0,0.0,43,0.00,CLR,CLR,0.00,WeatherDisplay:10.37,2013-01-22 03:56:00,
2013-01-21 23:01:00,34.5,14.3,29.78,SW,225,0.0,0.0,43,0.00,CLR,CLR,0.00,WeatherDisplay:10.37,2013-01-22 04:01:00,
2013-01-21 23:06:00,34.2,14.5,29.78,West,270,0.0,0.0,44,0.00,CLR,CLR,0.00,WeatherDisplay:10.37,2013-01-22 04:06:00,
2013-01-21 23:11:00,34.0,14.3,29.78,WSW,248,0.0,0.0,44,0.00,CLR,CLR,0.00,WeatherDisplay:10.37,2013-01-22 04:11:00,
2013-01-21 23:16:00,34.0,13.8,29.79,WSW,248,0.0,0.0,43,0.00,CLR,CLR,0.00,WeatherDisplay:10.37,2013-01-22 04:16:00,
2013-01-21 23:22:00,33.4,13.8,29.78,West,270,0.0,0.0,44,0.00,CLR,CLR,0.00,WeatherDisplay:10.37,2013-01-22 04:22:00,
2013-01-21 23:27:00,33.4,12.8,29.78,NW,315,0.0,0.0,42,0.00,CLR,CLR,0.00,WeatherDisplay:10.37,2013-01-22 04:27:00,
2013-01-21 23:32:00,33.4,12.8,29.78,WNW,292,0.0,0.0,42,0.00,CLR,CLR,0.00,WeatherDisplay:10.37,2013-01-22 04:32:00,
2013-01-21 23:37:00,33.3,12.6,29.79,NNE,22,0.0,0.0,42,0.00,CLR,CLR,0.00,WeatherDisplay:10.37,2013-01-22 04:37:00,
2013-01-21 23:43:00,33.1,11.9,29.78,North,0,0.0,0.0,41,0.00,CLR,CLR,0.00,WeatherDisplay:10.37,2013-01-22 04:43:00,
2013-01-21 23:48:00,32.9,12.8,29.79,North,0,0.0,0.0,43,0.00,CLR,CLR,0.00,WeatherDisplay:10.37,2013-01-22 04:48:00,
2013-01-21 23:53:00,32.7,12.1,29.79,NNE,22,0.0,0.0,42,0.00,CLR,CLR,0.00,WeatherDisplay:10.37,2013-01-22 04:53:00,
2013-01-21 23:58:00,32.5,12.5,29.79,North,0,0.0,0.0,43,0.00,CLR,CLR,0.00,WeatherDisplay:10.37,2013-01-22 04:58:00,